This is the latest recevied weather packets stored in our database for station/object KD4MBW. If no packets are shown the sender has not sent any weather packets the latest 10 day(s).
| Time | Temp. | Humidity | Pressure | Rain* | Wind** | Luminosity | Snow |
|---|---|---|---|---|---|---|---|
| 1777925862 | 25.56° C | 36% | 1015.8 hPa | 0 mm | - | 584 W/m² | - |
| 1777925559 | 25.56° C | 38% | 1015.7 hPa | 0 mm | - | 597 W/m² | - |
| 1777925257 | 25.56° C | 37% | 1015.8 hPa | 0 mm | - | 608 W/m² | - |
| 1777924952 | 25.56° C | 36% | 1015.9 hPa | 0 mm | - | 621 W/m² | - |
| 1777924649 | 25.56° C | 37% | 1015.9 hPa | 0 mm | - | 632 W/m² | - |
| 1777924345 | 25.56° C | 38% | 1016 hPa | 0 mm | - | 643 W/m² | - |
| 1777924042 | 25.56° C | 38% | 1015.9 hPa | 0 mm | - | 654 W/m² | - |
| 1777923738 | 25.56° C | 36% | 1016 hPa | 0 mm | - | 665 W/m² | - |
| 1777923435 | 25.56° C | 36% | 1016.2 hPa | 0 mm | - | 677 W/m² | - |
| 1777923132 | 25.56° C | 38% | 1016.3 hPa | 0 mm | - | 686 W/m² | - |
| 1777922830 | 25.56° C | 36% | 1016.4 hPa | 0 mm | - | 696 W/m² | - |
| 1777922528 | 25° C | 37% | 1016.3 hPa | 0 mm | - | 705 W/m² | - |
| 1777922227 | 25° C | 37% | 1016.5 hPa | 0 mm | - | 714 W/m² | - |
| 1777921923 | 25.56° C | 37% | 1016.5 hPa | 0 mm | - | 723 W/m² | - |
| 1777921618 | 26.11° C | 36% | 1016.6 hPa | 0 mm | - | 730 W/m² | - |
| 1777921315 | 26.11° C | 37% | 1016.6 hPa | 0 mm | - | 739 W/m² | - |
| 1777921011 | 26.67° C | 37% | 1016.4 hPa | 0 mm | - | 745 W/m² | - |
| 1777920708 | 26.11° C | 37% | 1016.4 hPa | 0 mm | - | 752 W/m² | - |
| 1777920404 | 26.11° C | 36% | 1016.6 hPa | 0 mm | - | 758 W/m² | - |
| 1777920093 | 26.11° C | 37% | 1016.8 hPa | 0 mm | - | 765 W/m² | - |
| 1777919791 | 26.11° C | 33% | 1016.8 hPa | 0 mm | - | 771 W/m² | - |
| 1777919488 | 26.11° C | 35% | 1016.6 hPa | 0 mm | - | 778 W/m² | - |
| 1777919186 | 26.11° C | 33% | 1016.8 hPa | 0 mm | - | 783 W/m² | - |
| 1777918883 | 26.11° C | 34% | 1016.8 hPa | 0 mm | - | 787 W/m² | - |
| 1777918580 | 26.67° C | 35% | 1016.9 hPa | 0 mm | - | 787 W/m² | - |
* Rain latest hour (hover to see other rain measurements)
** Current wind speed in m/s (hover to see current wind gust speed)